Tracking 31027 objects as of 19-Jul-2025
HD Live streaming from Space Station
objects crossing your sky now

GALAXY 23 (TELSTAR 13)

Track GALAXY 23 (TELSTAR 13) now!
GALAXY 23 (TELSTAR 13) is classified as:


NORAD ID: 27854
Int'l Code: 2003-034A
Perigee: 36,147.7 km
Apogee: 36,166.9 km
Inclination: 2.3 °
Period: 1,454.7 minutes
Semi major axis: 42528 km
RCS: 36.5219 m2 (large)
Launch date: August 8, 2003
Source: United States (US)
Launch site: SEA LAUNCH (SEAL)

24 C-band, 2 Ka-band, 32 Ku-band; additional C-band payload owned and operated by Loral Skynet.
Your satellite tracking list
FLOCK 4Q 34
Track 1 satellite(s)




NASA's NSSDC Master Catalog

Two Line Element Set (TLE):
1 27854U 03034A   25199.71758701 -.00000258  00000-0  00000+0 0  9993
2 27854   2.3325  83.7911 0002260 146.2147  99.3320  0.98988755 85195
Source of the keplerian elements: AFSPC